Content
SEND FEEDBACK

Daily
Averages
Monthly
Summary
United States of America

TAMUNING, GUAM


Home > North America > United States > Guam
Elevation: 250 feet     Latitude: 13 29N     Longitude: 144 47E

WEATHER
 
SELECT A DAY
Number of Records: 341,794;   Date Range: 1/1/95 - 7/23/14
 
SHARE

PRINT THIS DATA

[ ← Previous Day ]
WEATHER ALMANAC - MAY 18, 2013
[ Next Day → ]
[ °C ]   °F
Weather ElementAverageHighLow
Temperature81.7 °F86 °F (10:42 am)78.4 °F (5:55 am)
Dewpoint74.4 °F76.1 °F (12:55 pm)73.4 °F (3:10 am)
Humidity78.4 %89 % (3:01 am)69 % (2:55 pm)
Barometer29.87 in29.91 in (9:55 pm)29.82 in (2:55 pm)
Wind Speed8.1 mph11.5 mph (7:53 am)
Weather ElementAverage
Visibility10 mi
Wind DirectionE (95.5 °)

Weather ElementTotal
Precipitation---
Cooling Degree Days17.2 (Base 65)
Growing Degree Days32.2 (Base 50)
Averaged from 31 records on May 18, 2013
WEATHER CONDITIONS BREAKOUT
WIND DIRECTION BREAKOUT
WEATHER BY HOUR - MAY 18, 2013
[ °C ]   °F
Local TimeTemperatureDewpointHumidityBarometerVisibilityWind DirectionWind SpeedGust SpeedPrecipitationEventsConditions
1:55 AM79.2 °F74.5 °F86 %29.88 in10.0 miEast (80°)9.2 mphScattered Clouds
2:55 AM79.2 °F74.1 °F84 %29.87 in10.0 miEast (80°)8.1 mphScattered Clouds
3:01 AM78.8 °F75.2 °F89 %29.87 in10.0 miEast (90°)6.9 mphMostly Cloudy
3:10 AM78.8 °F73.4 °F83 %29.86 in10.0 miEast (90°)10.4 mphScattered Clouds
3:55 AM78.6 °F73.4 °F84 %29.86 in10.0 miEast (100°)8.1 mphPartly Cloudy
4:55 AM78.6 °F74.1 °F86 %29.86 in10.0 miEast (90°)6.9 mphScattered Clouds
5:34 AM78.8 °F73.4 °F83 %29.87 in10.0 miEast (100°)6.9 mphScattered Clouds
5:55 AM78.4 °F73.4 °F84 %29.88 in10.0 miEast (100°)5.8 mphScattered Clouds
6:55 AM79.7 °F74.1 °F83 %29.89 in10.0 miEast (90°)5.8 mphPartly Cloudy
7:46 AM82.4 °F75.2 °F79 %29.89 in10.0 miEast (80°)9.2 mphMostly Cloudy
7:53 AM82.4 °F73.4 °F74 %29.89 in10.0 miEast (90°)11.5 mphScattered Clouds
7:55 AM82.4 °F73.8 °F75 %29.90 in10.0 miEast (90°)10.4 mphScattered Clouds
8:55 AM84.2 °F75.2 °F74 %29.89 in10.0 miEast (100°)10.4 mphPartly Cloudy
9:55 AM83.5 °F74.3 °F74 %29.89 in10.0 miEast (90°)11.5 mphScattered Clouds
10:42 AM86.0 °F75.2 °F70 %29.88 in10.0 miESE (120°)9.2 mphMostly Cloudy
10:44 AM86.0 °F75.2 °F70 %29.88 in10.0 miEast (100°)10.4 mphScattered Clouds
10:48 AM86.0 °F75.2 °F70 %29.88 in10.0 miESE (120°)11.5 mphMostly Cloudy
10:55 AM85.1 °F74.8 °F71 %29.88 in10.0 miEast (100°)10.4 mphScattered Clouds
11:55 AM85.6 °F75.6 °F72 %29.87 in10.0 miEast (100°)8.1 mphScattered Clouds
12:55 PM86.0 °F76.1 °F72 %29.86 in10.0 miEast (80°)10.4 mphMostly Cloudy
1:55 PM85.1 °F74.7 °F71 %29.83 in10.0 miESE (110°)10.4 mphPartly Cloudy
2:55 PM84.9 °F73.9 °F69 %29.82 in10.0 miEast (90°)9.2 mphClear
3:55 PM83.8 °F74.5 °F73 %29.82 in10.0 miESE (120°)9.2 mphScattered Clouds
4:55 PM83.1 °F73.6 °F73 %29.82 in10.0 miESE (110°)5.8 mphClear
5:55 PM82.4 °F74.1 °F76 %29.83 in10.0 miEast (100°)6.9 mphClear
6:55 PM80.2 °F74.1 °F82 %29.85 in10.0 miEast (100°)5.8 mphClear
7:55 PM79.5 °F73.6 °F82 %29.87 in10.0 miEast (100°)4.6 mphClear
8:55 PM79.0 °F73.9 °F84 %29.89 in10.0 miEast (100°)4.6 mphPartly Cloudy
9:55 PM79.3 °F74.5 °F85 %29.91 in10.0 miEast (80°)5.8 mphScattered Clouds
10:55 PM78.8 °F74.5 °F87 %29.91 in10.0 miEast (90°)4.6 mphPartly Cloudy
11:55 PM78.4 °F73.9 °F86 %29.90 in10.0 miENE (70°)3.5 mphClear
Hourly data recorded from PGUA, located miles away from Tamuning, Guam







STORIES FROM OUR PARTNERS